Change the Weather History Date:

Friday, February 7, 2014

  Actual Average Record
Temperature  
Mean Temperature 1 °F 29 °F  
Max Temperature 11 °F 37 °F 55 °F (2015)
Min Temperature -9 °F 21 °F -9 °F (2014)
Degree Days  
Heating Degree Days 64 36  
Month to date heating degree days 351 257  
Since 1 July heating degree days 3912 3564  
Cooling Degree Days 0 0  
Month to date cooling degree days 0 0  
Year to date cooling degree days 0 0  
Moisture  
Dew Point -5 °F    
Average Humidity 70    
Maximum Humidity 83    
Minimum Humidity 57    
Precipitation  
Precipitation 0.00 in 0.06 in 0.00 in (2015)
Month to date precipitation T 0.40  
Year to date precipitation 0.71 2.14  
Sea Level Pressure  
Sea Level Pressure 30.47 in    
Wind  
Wind Speed 5 mph (SSW)    
Max Wind Speed 10 mph    
Max Gust Speed 21 mph    
Visibility 10 miles    
Events      
T = Trace of Precipitation, MM = Missing Value Source: NWS Daily Summary

Daily Weather History Graph

Daily Weather History Graph

Search for Another Location

Airport or City:

Trip Planner

Search our weather history database for the weather conditions in past years. The results will help you decide how hot, cold, wet, or windy it might be!

Date:

Astronomy

Feb. 07, 2014 Rise Set
Actual Time 6:57 AM CST 5:22 PM CST
Civil Twilight 6:29 AM CST 5:50 PM CST
Nautical Twilight 5:57 AM CST 6:22 PM CST
Astronomical Twilight 5:25 AM CST 6:53 PM CST
Moon 11:33 AM CST (2/7) 1:13 AM CST (2/7)
Length of Visible Light 11h 21m
Length of Day
10h 24m
First Quarter, 59% of the Moon is Illuminated
Feb 7
First Quarter
Feb 14
Full
Feb 22
Last Quarter
Mar 1
New
Mar 8
First Quarter

Hourly Weather History & Observations

Time (CST) Temp. Windchill Dew Point Humidity Pressure Visibility Wind Dir Wind Speed Gust Speed Precip Events Conditions
12:54 AM -2.0 °F -12.2 °F -8.0 °F 76% 30.51 in 10.0 mi WSW 4.6 mph - N/A   Clear
1:54 AM -5.1 °F -13.6 °F -9.0 °F 83% 30.50 in 10.0 mi WSW 3.5 mph - N/A   Clear
2:54 AM -7.1 °F -19.9 °F -11.9 °F 79% 30.49 in 10.0 mi SSW 5.8 mph - N/A   Clear
3:54 AM -7.1 °F - -11.0 °F 83% 30.48 in 10.0 mi Calm Calm - N/A   Clear
4:54 AM -6.0 °F -14.7 °F -11.0 °F 79% 30.49 in 10.0 mi WSW 3.5 mph - N/A   Clear
5:54 AM -6.0 °F -14.7 °F -11.0 °F 79% 30.50 in 10.0 mi WSW 3.5 mph - N/A   Clear
6:54 AM -8.0 °F -19.2 °F -13.0 °F 79% 30.51 in 10.0 mi SW 4.6 mph - N/A   Clear
7:54 AM -6.0 °F -16.9 °F -9.9 °F 83% 30.53 in 10.0 mi SW 4.6 mph - N/A   Clear
8:54 AM -0.9 °F -11.0 °F -6.0 °F 79% 30.52 in 10.0 mi SW 4.6 mph - N/A   Clear
9:54 AM 5.0 °F -4.1 °F -4.0 °F 66% 30.54 in 10.0 mi SW 4.6 mph - N/A   Clear
10:54 AM 8.1 °F -4.3 °F -2.9 °F 61% 30.53 in 10.0 mi SSW 8.1 mph - N/A   Clear
11:54 AM 9.0 °F -3.2 °F -2.9 °F 59% 30.52 in 10.0 mi SW 8.1 mph - N/A   Clear
12:54 PM 10.0 °F -2.9 °F -2.9 °F 56% 30.49 in 10.0 mi SSW 9.2 mph - N/A   Clear
1:54 PM 10.9 °F 1.4 °F -2.0 °F 56% 30.47 in 10.0 mi SSW 5.8 mph - N/A   Clear
2:54 PM 10.9 °F 0.2 °F -0.9 °F 59% 30.46 in 10.0 mi South 6.9 mph - N/A   Clear
3:54 PM 10.9 °F 1.4 °F -0.9 °F 59% 30.45 in 10.0 mi SW 5.8 mph - N/A   Clear
4:54 PM 9.0 °F 2.4 °F -2.9 °F 59% 30.43 in 10.0 mi South 3.5 mph - N/A   Clear
5:54 PM 8.1 °F - -4.0 °F 58% 30.43 in 10.0 mi Calm Calm - N/A   Clear
6:54 PM 3.9 °F -3.4 °F -4.0 °F 70% 30.44 in 10.0 mi SE 3.5 mph - N/A   Clear
7:54 PM 6.1 °F -4.3 °F -2.0 °F 69% 30.43 in 10.0 mi SE 5.8 mph - N/A   Overcast
8:54 PM 9.0 °F 0.6 °F -0.9 °F 64% 30.41 in 10.0 mi South 4.6 mph - N/A   Overcast
9:54 PM 10.9 °F - -0.9 °F 59% 30.40 in 10.0 mi North - - N/A   Overcast
10:54 PM 10.0 °F 3.6 °F 1.0 °F 67% 30.41 in 10.0 mi South 3.5 mph - N/A   Overcast
11:54 PM 10.9 °F 4.7 °F 1.0 °F 64% 30.39 in 10.0 mi East 3.5 mph - N/A   Overcast